EW7794 Weather Reports


time (UTC)temp
C
wind
direction
speed
KPH
gust
KPH
rain 1hr
cm
rain 24hr
cm
rain mn
cm
humidity
%
barometer
mb
20260906212559 20 0.0 0.0 0.00 0.00 0.00 69 1018.3
20260906211519 21 0.0 6.4 0.00 0.00 0.00 67 1018.5
20260906210519 21 0.0 0.0 0.00 0.00 0.00 68 1018.4
20260906205519 21 0.0 0.0 0.00 0.00 0.00 70 1018.3
20260906204519 21 0.0 0.0 0.00 0.00 0.00 70 1018.3
20260906203539 21 0.0 8.0 0.00 0.00 0.00 67 1018.4
20260906202539 21 0.0 9.7 0.00 0.00 0.00 68 1018.3
20260906201519 21 23 3.2 8.0 0.00 0.00 0.00 70 1018.2
20260906200518 21 0.0 4.8 0.00 0.00 0.00 68 1018.2
20260906195519 21 0 1.6 8.0 0.00 0.00 0.00 68 1018.2
20260906194519 21 0.0 0.0 0.00 0.00 0.00 71 1018.1
20260906193519 21 68 1.6 6.4 0.00 0.00 0.00 69 1018.1
20260906192519 21 0.0 4.8 0.00 0.00 0.00 70 1018.2
20260906191518 21 0.0 9.7 0.00 0.00 0.00 70 1018.1
20260906190519 21 0.0 8.0 0.00 0.00 0.00 69 1018.1
20260906185519 21 0.0 14.5 0.00 0.00 0.00 71 1018.1
20260906184519 21 90 1.6 6.4 0.00 0.00 0.00 72 1017.9
20260906183518 21 90 1.6 6.4 0.00 0.00 0.00 71 1018.0
20260906182519 21 0.0 0.0 0.00 0.00 0.00 70 1018.2
20260906181519 21 68 3.2 9.7 0.00 0.00 0.00 72 1018.0
20260906180518 21 68 1.6 6.4 0.00 0.00 0.00 70 1018.1
20260906175538 21 45 1.6 8.0 0.00 0.00 0.00 72 1018.1
20260906174519 21 0 1.6 8.0 0.00 0.00 0.00 74 1018.1
20260906173518 21 0.0 4.8 0.00 0.00 0.00 73 1018.1
20260906172518 21 90 1.6 6.4 0.00 0.00 0.00 76 1018.1
20260906171519 21 0 1.6 6.4 0.00 0.00 0.00 74 1018.1
20260906170518 21 113 1.6 9.7 0.00 0.00 0.00 76 1018.2
20260906165541 21 23 3.2 11.3 0.00 0.00 0.00 76 1018.3
20260906164519 21 0 1.6 6.4 0.00 0.00 0.00 76 1018.2
20260906163518 20 0 3.2 8.0 0.00 0.00 0.00 76 1018.2
20260906162518 21 23 1.6 6.4 0.00 0.00 0.00 73 1018.1
20260906161519 21 0 3.2 8.0 0.00 0.00 0.00 73 1018.2
20260906160519 21 45 1.6 9.7 0.00 0.00 0.00 72 1018.2
20260906155538 20 68 1.6 4.8 0.00 0.00 0.00 77 1018.2
20260906154540 20 90 1.6 4.8 0.00 0.00 0.00 77 1018.1
20260906153520 20 68 1.6 4.8 0.00 0.00 0.00 77 1018.1
20260906152520 20 0 1.6 8.0 0.00 0.00 0.00 78 1018.1
20260906151538 20 68 1.6 4.8 0.00 0.00 0.00 79 1018.0
20260906150518 20 45 1.6 6.4 0.00 0.00 0.00 78 1018.0
20260906145519 20 68 1.6 11.3 0.00 0.00 0.00 81 1018.0
20260906144518 20 90 1.6 6.4 0.00 0.00 0.00 82 1017.9
20260906143518 20 45 3.2 6.4 0.00 0.00 0.00 82 1017.8
20260906142518 19 68 3.2 6.4 0.00 0.00 0.00 84 1017.7
20260906141558 18 68 1.6 4.8 0.00 0.00 0.00 85 1017.7
20260906140518 18 45 3.2 11.3 0.00 0.00 0.00 85 1017.7
20260906135540 19 45 1.6 6.4 0.00 0.00 0.00 85 1017.6
20260906134538 19 0 1.6 3.2 0.00 0.00 0.00 86 1017.5
20260906133518 18 0 1.6 4.8 0.00 0.00 0.00 85 1017.5
20260906132518 19 0 1.6 4.8 0.00 0.00 0.00 85 1017.3
20260906131518 18 23 3.2 6.4 0.00 0.00 0.00 88 1017.4
20260906130518 18 338 1.6 4.8 0.00 0.00 0.00 88 1017.4
20260906125540 18 338 1.6 4.8 0.00 0.00 0.00 90 1017.4
20260906124520 18 338 3.2 8.0 0.00 0.00 0.00 91 1017.3
20260906123520 17 23 3.2 6.4 0.00 0.00 0.00 92 1017.2
20260906122539 17 0 1.6 4.8 0.00 0.00 0.00 93 1017.2
20260906121520 17 0 3.2 6.4 0.00 0.00 0.00 93 1017.1
20260906120520 16 315 1.6 4.8 0.00 0.00 0.00 93 1017.0
20260906115518 16 315 1.6 3.2 0.00 0.00 0.00 93 1017.0
20260906114518 16 315 1.6 4.8 0.00 0.00 0.00 93 1016.8
20260906113520 16 315 3.2 4.8 0.00 0.00 0.00 93 1016.7
20260906112520 15 293 3.2 6.4 0.00 0.00 0.00 93 1016.6
20260906111520 15 315 3.2 4.8 0.00 0.00 0.00 93 1016.5
20260906110520 15 315 3.2 3.2 0.00 0.00 0.00 93 1016.4
20260906105518 15 315 3.2 3.2 0.00 0.00 0.00 93 1016.4
20260906104520 15 315 3.2 4.8 0.00 0.00 0.00 93 1016.2
20260906103540 15 315 3.2 4.8 0.00 0.00 0.00 93 1016.3
20260906102520 15 315 3.2 4.8 0.00 0.00 0.00 93 1016.1
20260906101520 15 315 3.2 4.8 0.00 0.00 0.00 93 1016.2
20260906100520 15 315 3.2 3.2 0.00 0.00 0.00 93 1016.1
20260906095520 15 315 3.2 3.2 0.00 0.00 0.00 93 1016.0
20260906094520 15 315 3.2 4.8 0.00 0.00 0.00 92 1015.9
20260906093520 15 315 3.2 6.4 0.00 0.00 0.00 92 1015.7
20260906092520 15 315 3.2 6.4 0.00 0.00 0.00 92 1015.7
20260906091519 15 293 3.2 6.4 0.00 0.00 0.00 92 1015.7
20260906090519 15 315 4.8 6.4 0.00 0.00 0.00 92 1015.6
20260906085540 15 315 3.2 4.8 0.00 0.00 0.00 92 1015.5
20260906084520 16 315 4.8 8.0 0.00 0.00 0.00 91 1015.3
20260906083520 16 315 3.2 4.8 0.00 0.00 0.00 91 1015.1
20260906082519 16 315 3.2 4.8 0.00 0.00 0.00 91 1015.0
20260906081520 16 315 3.2 4.8 0.00 0.00 0.00 91 1015.1
20260906080519 16 315 3.2 4.8 0.00 0.00 0.00 91 1015.1
20260906075539 16 315 1.6 4.8 0.00 0.00 0.00 91 1015.1
20260906074519 16 315 1.6 3.2 0.00 0.00 0.00 92 1015.2
20260906073520 16 0.0 3.2 0.00 0.00 0.00 92 1015.1
20260906072519 16 315 1.6 3.2 0.00 0.00 0.00 92 1015.1
20260906071520 16 315 4.8 6.4 0.00 0.00 0.00 92 1014.9
20260906070519 16 315 3.2 4.8 0.00 0.00 0.00 93 1014.9
20260906065519 16 315 3.2 4.8 0.00 0.00 0.00 93 1015.0
20260906064519 16 315 1.6 3.2 0.00 0.00 0.00 93 1015.0
20260906063519 16 315 3.2 4.8 0.00 0.00 0.00 93 1015.0
20260906062519 16 315 3.2 6.4 0.00 0.00 0.00 93 1015.1
20260906061539 16 315 3.2 3.2 0.00 0.00 0.00 93 1015.1
20260906060519 16 315 1.6 3.2 0.00 0.00 0.00 93 1015.1
20260906055519 16 315 1.6 3.2 0.00 0.00 0.00 93 1015.2
20260906054519 16 315 1.6 3.2 0.00 0.00 0.00 93 1015.2
20260906053519 16 315 1.6 3.2 0.00 0.00 0.00 93 1015.2
20260906052519 15 315 1.6 3.2 0.00 0.00 0.00 93 1015.1
20260906051519 15 315 1.6 4.8 0.00 0.00 0.00 93 1015.2
20260906050519 15 315 3.2 4.8 0.00 0.00 0.00 93 1015.1
20260906045539 15 315 1.6 3.2 0.00 0.00 0.00 93 1015.0
20260906044559 15 0.0 0.0 0.00 0.00 0.00 92 1015.0
20260906043519 15 0.0 0.0 0.00 0.00 0.00 92 1014.9
20260906042519 15 0.0 0.0 0.00 0.00 0.00 92 1015.0
20260906041519 15 0.0 3.2 0.00 0.00 0.00 92 1014.9
20260906040519 15 315 1.6 3.2 0.00 0.00 0.00 92 1014.8
20260906040019 15 315 1.6 3.2 0.00 0.00 0.00 92 1014.8
20260906035018 16 315 1.6 3.2 0.00 0.00 0.00 92 1014.8
20260906034018 16 0 3.2 4.8 0.00 0.00 0.00 92 1014.8
20260906033018 16 0 3.2 4.8 0.00 0.00 0.00 91 1014.7
20260906032019 16 0 1.6 4.8 0.00 0.00 0.00 91 1014.7
20260906031019 16 0 3.2 4.8 0.00 0.00 0.00 91 1014.6
20260906030019 16 0 3.2 3.2 0.00 0.00 0.00 91 1014.6
20260906025019 16 0 3.2 4.8 0.00 0.00 0.00 91 1014.5
20260906024058 16 0 1.6 3.2 0.00 0.00 0.00 91 1014.5
20260906023019 16 0 1.6 1.6 0.00 0.00 0.00 90 1014.4
20260906022019 16 0 1.6 1.6 0.00 0.00 0.00 90 1014.3
20260906021018 16 0.0 0.0 0.00 0.00 0.00 90 1014.3
20260906020018 16 0 1.6 3.2 0.00 0.00 0.00 90 1014.2
20260906015018 16 0 1.6 3.2 0.00 0.00 0.00 89 1014.3
20260906014038 16 0 3.2 4.8 0.00 0.00 0.00 90 1014.2
20260906013018 16 0 3.2 4.8 0.00 0.00 0.00 90 1014.1
20260906012018 16 0 1.6 3.2 0.00 0.00 0.00 89 1014.1
20260906011018 16 0 1.6 3.2 0.00 0.00 0.00 89 1014.0
20260906010018 16 0 1.6 3.2 0.00 0.00 0.00 88 1013.9
20260906005019 17 0 1.6 3.2 0.00 0.00 0.00 87 1013.9
20260906004058 17 0.0 0.0 0.00 0.00 0.00 86 1013.8
20260906003018 17 0.0 0.0 0.00 0.00 0.00 85 1013.8
20260906002038 17 0.0 0.0 0.00 0.00 0.00 84 1013.8
20260906001018 18 0.0 0.0 0.00 0.00 0.00 83 1013.8
20260906000019 18 0.0 0.0 0.00 0.00 0.00 82 1013.8
20260905235018 19 0.0 0.0 0.00 0.00 0.00 80 1013.8
20260905234018 20 0.0 0.0 0.00 0.00 0.00 77 1013.9
20260905233038 21 0.0 0.0 0.00 0.00 0.00 75 1014.0
20260905232038 21 0.0 0.0 0.00 0.00 0.00 72 1013.9
20260905231018 21 0.0 0.0 0.00 0.00 0.00 72 1013.9
20260905230020 22 0.0 1.6 0.00 0.00 0.00 71 1013.8
20260905225018 22 0.0 0.0 0.00 0.00 0.00 69 1013.7
20260905224058 22 0.0 3.2 0.00 0.00 0.00 68 1013.8
20260905223018 22 0.0 4.8 0.00 0.00 0.00 67 1013.9
20260905222020 22 0 3.2 6.4 0.00 0.00 0.00 66 1013.9
20260905221020 22 23 1.6 6.4 0.00 0.00 0.00 65 1013.7
20260905220040 22 0.0 4.8 0.00 0.00 0.00 65 1013.7
20260905215020 22 338 1.6 4.8 0.00 0.00 0.00 65 1013.6
20260905214021 22 0 1.6 4.8 0.00 0.00 0.00 67 1013.4